ONEWEB-0249 (48967 NORAD) Tracking and Keplerian Element Data

This shows tracking and keplerian element data for the satellite.

Feedback or suggestion? Click here.




ElementValue
Catalog48967
NameONEWEB-0249
Epoch Orbit567
Epoch Day211.25001157
Epoch Year2021
RAAN227.4201
Inclination87.4729
Eccentricity0.0007067
Argument of Perigee154.2667
Mean Anonmoly328.9832
Mean Motion14.98809299
Decay Rate-0.01471271
L11 48967U 21060A 21211.25001157 -.01471271 00000-0 -13392+0 0 9993
L22 48967 87.4729 227.4201 0007067 154.2667 328.9832 14.98809299 5674

Live tracking and technical data element details for ONEWEB-0249 (NORAD 48967). ONEWEB-0249 can be tracked NOW for your location showing map with azimuth and elevation plus other details from your city location.

Track the satellite on the map from your city or location and see movement details for azimuth, elevation, latitude, longitude, range, height, and movement on the map or in text.







IsCatalogInMostPopularTable: catalog: 48967, numindb: 4
Update: records affected: 1



GetName: 48967 ONEWEB-0249

Hit Count: updated at: Sat, 31 Jul 2021 15:34:57 GMT